Location: Hamayl? Da??
(36.7028°N, 30.1716°E)
Time: 11:32:38
(UTC+00:00)

DELTA 2 R/B (1) - Pass Details

Date: 04 August 2024
Orbit: 789 x 800 km, 39.6° (Epoch: 11 September)

Event Time Altitude Azimuth Distance (km) Brightness Sun altitude
Rises 17:55:40 0° 278° (W) 3,295 8.2 -10.4°
Reaches altitude 10° 17:58:11 10° 281° (W) 2,367 7.3 -10.8°
Maximum altitude 18:03:44 65° 3° (N) 873 3.9 -11.8°
Enters shadow 18:09:11 11° 86° (E) 2,324 5.5 -12.7°
